Wind_Speed
9 9 9 9 9 11 13 13 13 12 10 9 10 9 8 6 4 4 5 4 2 1 1 1 1 1 1 1 1 1 1 1 1 2 3 2 0 1 1 1 1 1 1 1 1 2 2 2 1 1 1 0 2 1 1 0 1 1 0 1 1 1 1 2 5 4 1 2 2 2 1 1 1 1 1 1 1 0 2 3 1 2 4 3 4 6 3
8 10 10 9 10 12 14 14 13 11 9 9 10 10 8 7 4 3 4 4 2 1 1 0 1 1 0 1 0 1 2 2 1 1 2 2 1 1 0 1 1 0 0 1 1 1 1 1 0 0 1 0 2 2 0 1 0 1 1 0 1 2 1 0 4 5 1 1 1 1 1 1 2 1 2 1 1 3 1 1 1 3 6 7 8 8 2
9 10 10 10 11 13 14 14 13 11 9 9 11 11 9 5 2 2 4 5 4 2 2 1 1 0 1 1 1 1 1 2 2 1 1 1 2 1 0 1 1 1 1 1 1 1 1 1 1 1 1 1 1 2 1 1 0 1 0 0 0 2 1 1 4 5 3 4 4 2 2 0 1 1 2 2 2 3 2 2 3 4 4 6 8 9 6
10 10 10 11 12 14 15 14 12 10 9 10 11 11 8 3 1 2 3 5 6 6 6 3 1 1 1 1 1 1 0 1 2 2 1 1 1 1 0 1 2 1 1 2 2 2 1 0 1 1 2 0 1 2 1 1 1 1 0 1 0 1 1 4 6 6 6 8 5 2 2 5 6 6 2 3 3 2 2 3 4 4 2 5 8 10 14
10 10 11 12 14 15 14 12 11 9 9 10 10 10 7 2 1 2 2 3 6 7 7 6 3 1 1 1 0 1 2 1 1 2 2 1 2 1 0 2 2 1 1 2 2 1 1 1 0 1 2 1 1 0 0 1 2 1 1 0 1 1 3 2 4 7 9 10 7 1 1 7 11 10 6 2 3 4 5 7 7 3 4 6 6 7 13
11 11 12 14 14 14 12 10 9 8 8 9 9 8 7 3 1 1 0 1 2 2 5 7 4 3 1 0 0 1 2 2 1 2 1 1 2 1 1 2 3 2 1 1 1 1 1 2 2 1 0 1 1 1 0 1 1 0 0 0 1 2 3 1 1 5 7 9 10 6 5 7 7 7 9 6 3 5 7 9 10 5 6 10 11 13 16
12 12 13 14 12 11 10 9 8 8 7 8 7 6 5 3 2 2 1 0 1 1 3 3 2 2 2 0 1 1 1 1 1 1 1 1 1 2 2 1 2 2 2 1 1 1 1 2 2 1 1 1 1 1 1 1 1 1 0 1 2 2 2 2 1 6 8 6 6 4 2 4 4 5 7 7 5 6 8 9 11 8 10 14 17 20 19
12 13 12 11 10 10 9 8 8 7 7 6 6 5 3 1 1 1 1 1 2 1 1 1 1 1 1 0 1 1 2 2 1 2 3 1 1 3 3 1 1 1 2 4 4 2 1 2 3 2 2 1 1 1 1 2 2 1 0 2 2 1 1 2 1 5 5 0 1 0 2 3 4 3 3 4 4 4 4 5 7 6 10 13 15 17 15
12 11 10 9 8 8 8 8 8 7 7 6 5 4 2 1 1 0 1 1 1 1 1 1 0 0 0 0 1 1 2 2 1 2 4 3 1 3 3 0 2 1 1 4 6 4 1 3 4 3 2 3 1 1 1 2 2 1 1 0 0 1 1 1 1 5 4 2 1 4 1 2 2 3 8 9 6 3 1 4 5 6 10 13 13 11 8
9 8 8 8 8 9 9 8 8 7 6 6 4 3 2 2 1 1 0 0 0 1 1 1 0 0 0 1 1 1 1 2 1 1 3 4 3 3 3 2 1 1 1 3 4 4 3 4 4 3 4 4 3 1 1 2 1 2 2 0 1 0 2 0 2 4 3 1 6 8 3 2 3 5 9 9 8 6 5 6 8 9 10 10 9 8 8
8 8 9 9 10 10 10 9 8 7 6 6 4 3 3 2 1 1 1 0 0 0 0 0 0 0 1 2 2 1 2 2 3 1 1 1 2 3 3 3 2 2 1 2 3 4 4 2 1 1 0 2 2 3 4 5 4 2 3 1 1 0 1 0 0 3 4 5 9 10 5 1 2 5 8 10 8 8 9 9 12 14 11 7 8 9 12
9 9 9 9 9 9 9 9 8 7 6 5 4 4 3 2 2 1 1 0 1 1 0 1 2 1 2 3 3 3 3 3 4 4 2 2 2 2 2 3 1 1 1 2 4 4 2 1 3 5 6 7 8 8 8 8 7 4 2 2 2 2 1 0 1 2 4 5 7 6 2 2 2 4 8 14 8 7 11 12 13 13 8 5 9 12 15
8 8 8 8 8 8 8 8 8 6 5 4 4 4 3 2 2 2 2 0 1 2 1 2 3 4 4 4 4 4 3 3 4 4 4 4 3 2 2 3 2 2 3 4 4 2 1 1 1 3 4 4 5 7 8 8 7 6 4 3 1 2 2 1 1 1 3 2 3 4 2 4 3 1 9 16 10 9 13 11 9 7 3 5 11 15 18
8 8 9 9 9 9 8 8 8 6 5 4 3 3 3 2 2 3 3 1 1 2 1 2 2 3 3 3 3 2 2 2 2 2 3 4 3 2 2 2 3 3 4 4 3 2 1 0 0 0 1 1 1 2 3 4 5 6 5 3 1 2 2 0 1 1 1 1 2 3 3 2 5 5 10 12 10 11 11 10 9 4 2 6 14 17 21
8 9 9 9 9 9 9 8 8 7 5 5 3 3 3 2 2 3 3 2 1 1 1 1 2 2 3 2 2 1 1 1 1 2 3 3 2 1 1 2 2 1 2 2 1 0 1 1 1 1 1 0 1 0 1 2 2 5 4 3 2 1 1 1 2 0 1 2 3 3 4 1 4 8 12 11 12 12 9 9 7 2 4 17 21 19 25
9 9 9 10 10 9 9 8 8 7 6 5 4 3 2 2 2 2 3 2 1 1 1 2 2 2 1 1 1 1 1 0 1 1 1 0 1 1 1 1 0 1 1 2 1 1 1 1 0 1 2 1 1 1 1 1 1 2 2 2 3 3 2 1 1 1 1 1 3 3 2 1 5 10 14 14 15 11 6 5 2 3 16 29 27 26 32
9 9 9 10 9 9 8 8 7 7 6 5 4 3 2 1 1 2 4 3 1 0 1 1 1 2 1 1 1 2 1 0 1 1 0 1 1 1 1 0 1 0 1 2 1 1 1 1 1 1 1 0 0 2 1 1 1 1 1 2 3 3 2 1 1 1 1 1 2 3 2 2 7 13 16 20 18 9 3 5 5 13 29 33 29 33 37
9 9 9 9 8 8 8 7 7 7 6 5 5 4 3 1 0 2 3 3 1 1 1 0 1 2 1 1 1 1 0 1 2 1 1 1 2 2 1 1 1 0 1 1 1 1 1 0 1 1 1 1 0 2 1 2 3 2 1 1 2 2 1 2 1 1 1 1 2 4 2 2 9 18 22 25 19 6 2 8 13 24 36 36 33 35 36
9 8 8 8 8 8 7 7 8 7 7 7 6 5 4 3 1 1 2 3 2 1 1 1 1 1 1 1 2 2 2 2 3 2 0 1 2 3 1 1 1 1 1 0 1 1 1 1 1 0 1 1 0 1 1 2 2 2 2 1 2 2 1 1 1 1 1 1 2 5 2 3 15 23 21 20 15 5 7 17 24 30 36 36 36 37 35
8 8 8 8 8 8 8 8 9 9 9 9 8 7 6 4 2 1 2 2 1 2 2 1 1 2 3 2 3 3 3 4 4 2 1 1 3 4 1 1 1 2 1 1 1 0 0 0 0 1 1 1 1 0 1 2 2 4 3 2 3 4 2 2 3 2 1 1 2 3 2 7 22 24 15 12 12 11 17 27 31 33 35 36 36 36 34
7 8 8 8 8 8 8 9 9 10 10 9 9 8 7 6 4 3 2 1 1 2 3 3 2 3 4 5 5 5 5 5 5 4 2 2 3 2 0 1 2 2 0 0 1 0 1 0 0 1 0 1 1 1 0 2 4 4 3 2 2 2 2 3 2 2 2 3 2 5 8 13 22 21 13 12 17 20 24 29 33 35 36 35 34 35 37
8 8 8 8 8 7 8 9 9 10 10 10 10 9 8 7 5 5 4 2 1 4 5 6 5 6 6 6 6 7 7 7 7 6 5 4 2 1 1 3 3 2 1 1 1 0 1 1 0 0 0 0 2 2 1 1 2 3 4 3 3 5 7 5 3 1 4 7 8 10 14 16 21 21 17 19 25 28 29 31 33 33 34 34 36 39 40
8 8 8 8 7 7 8 9 9 9 9 9 9 9 8 7 6 5 4 4 6 9 9 8 7 7 8 7 8 8 8 8 8 7 7 5 2 1 2 2 2 2 1 0 1 1 1 1 0 1 1 1 2 2 2 4 3 1 4 5 3 7 12 8 3 4 9 10 10 12 15 20 25 23 19 23 30 32 33 32 30 31 35 37 37 36 36
7 7 7 7 7 7 7 9 9 9 8 8 8 8 7 7 5 4 2 1 3 6 8 7 8 8 9 9 9 9 9 9 8 8 7 5 3 2 3 2 2 2 1 1 2 1 2 2 0 1 1 1 1 2 3 4 3 1 3 5 3 6 14 10 4 7 10 6 6 14 20 26 27 20 20 29 35 34 33 31 31 35 38 36 34 33 34
7 7 7 6 6 6 7 8 9 9 8 7 6 7 7 6 5 4 3 1 1 3 4 5 7 8 9 9 10 10 9 9 9 8 7 6 5 4 4 4 3 2 2 2 2 1 2 2 1 2 2 2 3 2 2 4 4 3 4 5 4 7 12 10 7 8 8 9 13 23 27 23 17 14 23 35 39 36 34 31 31 33 34 33 33 33 33
7 7 7 7 6 7 7 8 8 8 9 7 5 5 7 7 6 5 4 2 1 2 3 4 5 8 9 9 10 10 10 9 9 8 7 7 6 5 5 4 4 3 2 2 2 2 3 4 3 1 2 3 4 4 4 7 8 7 7 7 7 9 10 10 10 10 8 9 18 27 23 13 10 18 30 37 38 37 35 32 30 30 33 35 34 33 34
7 7 7 7 7 7 7 8 8 8 9 8 5 2 4 7 7 6 5 4 1 1 2 4 6 8 10 10 10 11 10 10 9 9 8 8 8 7 6 5 4 4 2 2 3 4 4 4 4 2 2 6 9 7 6 8 7 6 6 10 13 9 8 11 11 8 6 10 19 24 16 9 16 30 37 37 36 36 36 33 31 32 36 38 35 34 38
7 7 7 7 7 7 7 7 8 8 8 8 6 2 2 5 7 7 6 5 3 0 5 11 11 9 9 10 12 12 11 11 10 10 9 9 8 8 7 6 5 5 5 4 5 5 5 4 3 3 3 7 7 5 4 5 4 4 6 13 16 12 11 13 10 8 11 17 22 22 15 17 29 39 39 35 34 35 35 33 32 36 40 38 33 35 39
8 8 8 7 7 7 7 7 8 8 8 8 7 3 1 2 6 7 7 6 5 4 11 15 11 6 7 9 12 13 12 12 12 11 9 9 9 9 8 7 6 7 8 8 9 9 7 6 6 5 4 4 3 2 2 2 2 4 9 15 16 13 13 16 16 15 17 20 21 22 23 30 37 38 35 32 31 32 33 33 34 38 37 32 32 36 39
9 8 8 8 8 8 8 7 7 7 7 7 6 4 1 1 4 7 7 4 3 3 7 8 5 5 8 11 14 14 11 11 13 11 9 10 10 8 8 9 9 9 9 10 10 8 7 7 7 7 7 6 4 3 2 2 1 4 11 17 17 15 17 19 18 16 18 23 29 32 34 33 31 28 28 29 28 30 33 34 35 34 32 34 40 44 41
9 9 9 9 8 8 8 7 6 6 7 7 6 4 3 2 5 6 6 4 2 3 5 7 7 7 7 9 15 16 12 10 12 12 9 10 10 9 9 10 10 11 13 14 13 9 6 5 6 6 9 11 9 5 3 2 2 6 15 19 18 18 20 19 16 14 20 31 40 40 33 23 19 22 25 25 27 29 30 31 32 33 36 42 44 40 34
10 10 10 9 8 8 7 6 6 5 5 7 7 6 5 5 6 5 3 4 3 3 4 6 6 4 2 3 10 18 15 10 11 12 9 8 9 9 10 11 11 12 13 13 11 8 6 8 10 11 11 12 11 6 3 4 5 11 18 20 20 20 19 18 16 17 24 31 35 35 32 26 23 23 23 24 27 26 26 31 37 39 42 46 44 36 30
10 10 10 8 8 8 6 6 5 3 4 6 6 7 7 6 6 4 4 6 7 5 3 4 3 2 2 2 5 15 16 10 9 10 8 7 7 6 7 9 10 9 9 8 6 5 5 8 11 13 13 13 10 5 3 6 10 16 18 20 21 20 18 18 18 19 25 28 25 24 26 28 27 24 23 25 26 24 30 41 46 43 44 47 45 39 34
11 11 10 9 8 7 6 5 3 2 4 5 5 9 12 12 11 8 7 6 7 7 8 7 3 1 2 1 2 10 16 11 8 9 7 6 7 5 4 5 6 7 8 8 6 6 6 6 7 7 8 11 9 5 3 9 16 18 18 20 22 20 19 20 19 20 25 28 24 19 19 21 24 25 23 23 25 29 40 50 49 45 47 48 43 39 36
11 11 9 8 7 6 5 4 2 2 4 4 6 9 13 15 16 15 10 7 6 6 7 9 6 2 3 1 1 8 15 12 8 8 6 4 5 5 4 4 4 5 5 6 6 5 4 5 5 4 3 5 5 3 5 13 17 18 20 22 22 20 21 23 24 26 28 25 20 18 18 19 22 23 21 24 32 41 49 50 46 44 46 45 41 37 35
11 10 8 7 6 5 4 4 3 3 4 3 6 8 9 11 13 15 14 13 13 10 7 6 5 3 2 1 2 9 14 11 8 8 5 3 3 3 3 3 3 3 4 5 5 5 5 6 5 3 3 3 4 4 8 14 16 19 21 22 20 18 20 24 29 33 31 23 16 17 20 20 21 22 25 32 40 44 46 46 45 44 43 41 38 35 33
11 9 8 6 5 5 5 4 4 3 4 5 8 8 6 6 7 9 10 14 17 17 13 9 5 3 3 2 4 10 11 8 7 8 5 4 3 3 4 3 2 2 3 4 3 4 7 9 7 4 3 5 5 7 11 13 15 19 21 19 17 18 22 28 33 34 31 25 22 23 24 23 22 25 30 37 41 40 38 39 40 40 38 36 33 33 36
10 8 6 6 5 5 4 5 4 4 6 8 8 6 3 3 3 5 8 11 12 15 16 11 6 6 6 3 5 9 8 6 6 6 5 4 3 2 3 4 2 2 1 2 1 2 5 6 4 3 4 6 6 9 13 14 17 19 18 16 18 23 28 33 33 29 27 28 29 30 31 32 34 38 41 43 42 39 36 36 38 38 36 33 32 35 39
8 7 5 5 6 6 5 4 4 5 6 5 4 3 3 4 3 4 7 8 7 9 12 10 6 8 9 5 4 6 8 6 5 3 3 4 4 2 1 2 2 2 1 1 1 2 2 2 1 2 2 2 3 10 15 19 23 23 18 17 22 27 31 32 27 20 19 21 23 23 25 30 38 44 47 45 43 39 36 36 38 38 36 35 37 40 42
8 6 4 4 5 7 7 5 3 3 3 3 3 3 4 7 6 4 5 5 4 6 9 8 6 8 9 6 4 5 8 7 4 2 2 3 4 3 1 1 1 2 2 1 1 0 1 1 1 1 1 1 5 12 20 28 31 26 18 18 24 27 28 26 21 16 16 17 17 18 22 28 35 40 41 39 39 38 36 36 38 38 37 37 39 41 42
7 5 4 4 5 6 7 6 4 2 2 3 4 4 4 5 5 5 5 3 1 4 8 9 7 8 9 8 6 5 6 8 5 2 2 3 4 3 1 0 1 2 2 1 2 2 2 2 1 1 1 2 8 18 28 34 33 24 16 18 26 29 28 23 18 16 16 16 16 20 27 33 35 35 34 33 34 33 33 35 37 37 37 38 39 40 42
7 5 4 4 5 5 5 6 6 4 3 3 3 2 2 2 3 4 5 3 1 4 8 9 9 9 10 9 7 5 5 7 7 3 1 3 5 3 1 0 1 3 1 2 3 2 2 2 1 2 2 5 14 25 33 35 30 21 14 19 29 32 28 21 17 16 16 15 18 26 34 35 33 31 31 31 30 30 31 33 35 35 36 37 38 40 41
8 7 5 3 4 5 5 6 8 6 4 3 3 2 2 3 2 1 2 2 2 5 7 9 11 10 8 7 6 5 4 6 6 2 1 4 4 2 2 2 2 2 1 2 2 3 2 1 1 2 4 11 21 30 34 32 25 17 16 23 31 30 24 18 16 16 15 17 24 32 35 33 30 29 29 28 28 29 30 31 32 33 35 36 37 39 40
8 7 5 2 4 6 4 4 7 7 3 2 2 1 1 3 2 1 1 3 4 5 8 12 13 10 6 6 7 5 3 5 5 3 3 4 4 2 2 2 2 3 2 2 2 2 1 1 2 1 7 18 27 31 33 30 20 14 19 28 32 29 23 18 17 16 18 24 32 35 33 30 29 29 29 28 29 30 31 31 32 33 34 36 37 38 39
7 7 4 2 5 9 6 2 5 6 3 0 0 2 2 1 1 2 3 6 7 8 11 14 14 10 7 6 6 4 4 5 4 3 3 3 3 2 1 0 2 2 2 1 2 1 1 2 3 4 12 23 29 31 31 26 17 15 24 31 32 28 23 19 17 19 24 31 36 35 31 30 30 30 30 30 29 29 30 32 33 34 35 36 37 38 39
7 7 5 3 4 8 5 2 2 3 1 1 1 2 2 3 4 5 6 8 9 11 13 13 10 7 6 5 4 4 5 5 3 3 4 3 1 1 1 1 1 3 2 1 2 0 1 3 6 10 19 28 31 32 30 22 15 19 28 32 30 27 22 18 18 22 28 34 36 32 29 30 30 30 31 31 30 29 30 31 32 33 35 36 38 39 40
5 6 6 4 2 4 4 2 1 1 1 1 1 2 4 6 7 7 8 9 10 11 11 8 4 3 4 4 3 4 6 5 3 3 4 2 1 1 2 2 2 1 0 0 1 2 3 5 10 18 26 30 31 30 26 18 17 24 31 31 28 25 20 17 21 26 31 33 33 30 28 30 30 30 31 31 30 30 31 31 31 33 34 35 36 38 39
5 5 5 3 1 1 2 3 3 2 2 0 2 4 5 6 5 4 6 8 8 8 7 4 2 1 3 4 2 2 5 7 4 2 3 2 1 1 3 2 1 1 1 2 1 3 5 9 16 24 29 31 31 28 23 18 21 28 31 29 27 23 18 18 24 29 31 32 30 28 28 30 30 30 31 31 31 31 31 31 32 32 33 34 36 37 38
9 7 6 5 4 3 4 5 4 2 2 2 2 3 3 3 3 3 5 7 7 5 3 3 3 1 2 3 2 1 4 5 3 1 3 3 1 1 1 1 2 1 1 2 2 5 10 15 22 27 29 30 29 26 20 18 23 28 29 27 25 20 17 22 27 29 29 29 28 27 28 29 29 30 31 31 31 32 31 31 32 32 32 33 36 37 38
11 9 8 7 4 4 5 5 2 1 1 2 2 3 3 4 4 5 6 7 6 3 1 3 3 1 1 2 3 2 2 3 2 2 2 2 1 1 0 1 2 2 1 2 5 10 15 21 26 28 29 29 27 22 19 22 26 27 26 25 22 18 19 24 27 27 27 27 26 26 27 28 28 30 30 31 31 32 31 30 31 32 32 33 35 36 37
9 8 8 7 5 5 6 4 2 1 1 2 4 5 5 6 7 6 6 7 7 4 1 2 2 2 2 3 2 1 1 2 2 2 1 1 2 2 1 2 3 2 5 8 10 15 20 25 27 28 28 27 24 22 22 25 26 24 23 23 20 19 21 25 26 26 26 26 25 26 27 27 27 28 29 29 30 31 31 31 32 33 33 34 35 35 36
6 6 7 7 7 7 6 4 3 3 4 5 6 6 7 8 8 7 6 7 7 5 2 2 2 3 2 2 1 1 1 1 1 1 1 2 3 3 2 3 4 5 9 13 17 21 24 26 26 25 24 24 23 23 24 24 23 21 21 21 20 21 23 25 26 26 26 26 25 26 26 26 27 28 29 29 31 32 33 34 34 34 35 35 34 34 35
Wind_Direction
358 354 349 346 345 345 348 350 351 351 352 349 352 356 355 351 339 327 344 356 346 2 50 39 22 57 79 115 191 210 210 202 204 196 204 217 231 203 203 199 213 227 279 243 203 219 235 200 192 260 240 15 20 333 226 212 219 238 273 97 118 191 233 250 265 266 124 113 129 105 65 143 181 232 141 163 203 27 286 292 348 255 239 242 263 259 267
348 347 345 343 341 342 345 347 349 351 351 350 354 358 351 340 339 357 11 10 3 25 76 357 339 353 20 61 114 224 223 223 227 219 221 209 184 199 221 192 194 118 111 248 214 201 241 232 182 355 248 234 27 4 191 152 27 272 237 79 110 218 222 234 289 297 325 177 186 149 142 184 227 220 115 128 87 84 57 145 114 257 235 222 251 267 253
342 341 340 340 339 339 342 344 346 348 348 350 355 357 350 338 350 44 30 21 28 91 112 102 109 279 308 346 10 333 245 219 223 243 242 210 197 200 60 118 143 111 126 228 221 214 247 282 10 32 284 233 57 24 50 155 263 320 286 87 231 265 263 203 278 302 308 301 318 332 330 350 226 204 142 179 169 150 223 260 242 252 221 201 238 265 279
336 335 335 337 336 336 339 341 342 343 347 350 355 358 359 1 27 20 17 26 50 82 83 64 89 141 278 296 4 345 249 206 236 233 218 211 209 206 95 130 138 120 192 246 245 216 199 346 350 306 260 229 60 12 4 167 212 277 27 73 74 312 279 235 246 255 264 287 315 33 346 305 286 281 242 187 176 174 223 254 249 259 275 245 239 258 281
328 331 333 334 334 334 336 338 339 343 349 352 357 5 14 47 71 357 346 18 53 78 63 36 49 123 219 254 70 298 278 313 262 209 205 213 202 204 174 183 197 184 194 244 257 213 154 149 265 261 246 295 20 343 279 227 233 227 246 346 77 257 265 246 241 245 258 286 304 358 258 279 281 289 287 231 162 161 193 229 249 289 307 276 255 262 279
326 330 331 331 331 331 333 337 342 347 352 354 0 11 21 42 112 93 111 15 51 73 24 25 63 107 79 196 173 304 296 312 288 195 174 170 204 219 197 202 226 218 178 252 279 260 227 208 215 238 281 295 254 148 96 240 243 132 199 20 50 257 271 24 55 265 270 282 287 274 250 263 267 274 283 279 214 178 201 237 257 271 271 275 290 294 289
326 328 328 328 328 328 331 337 343 347 351 355 2 9 22 50 96 113 139 143 152 196 346 18 93 93 51 123 197 224 245 280 288 181 167 135 178 216 245 239 218 203 192 226 250 252 263 267 256 207 192 254 246 259 266 156 75 2 321 42 25 254 259 63 77 283 285 280 286 286 240 259 271 266 278 285 258 221 221 248 268 267 256 265 283 291 288
325 326 325 326 326 327 333 338 340 343 344 350 359 3 13 46 78 135 165 137 107 99 359 15 123 78 50 215 206 201 221 256 292 196 207 242 144 187 236 294 112 148 191 210 233 243 215 267 268 195 187 261 226 236 271 133 89 2 79 57 20 255 304 61 92 290 294 206 93 244 180 242 283 303 339 334 296 253 229 261 279 270 264 271 281 286 286
323 325 326 329 332 335 341 343 341 340 338 339 345 350 356 354 336 346 143 115 77 23 12 42 234 190 147 235 182 184 215 244 291 237 213 228 213 193 215 154 110 115 175 214 248 277 263 266 267 224 228 269 261 283 298 162 149 127 112 36 32 232 297 67 47 309 296 125 5 297 238 188 231 30 24 7 348 336 266 268 272 267 281 291 291 290 297
327 331 334 337 338 336 336 336 334 333 333 333 328 322 330 341 344 342 6 77 27 3 53 75 321 294 223 218 198 229 242 211 241 276 221 219 236 233 224 194 172 224 214 226 266 305 305 287 289 276 258 259 274 286 186 151 145 146 151 157 31 292 269 9 19 301 270 24 331 311 296 175 147 73 29 5 352 337 303 287 287 281 284 296 299 304 321
335 337 337 337 335 333 330 328 328 325 322 322 314 303 312 324 322 310 339 32 206 186 70 249 284 17 233 231 220 238 243 205 208 249 272 214 243 257 225 194 220 271 251 263 305 322 317 315 5 7 49 120 100 107 109 83 61 97 150 154 58 103 256 321 6 268 283 332 326 303 281 260 105 85 40 9 348 322 306 299 298 294 289 296 309 318 327
342 342 342 341 339 337 335 335 336 331 323 319 310 300 301 306 302 262 147 86 227 200 243 249 232 247 251 235 234 236 237 234 224 231 266 285 285 285 231 191 203 289 286 304 319 320 328 59 82 77 78 85 90 86 75 63 56 58 94 122 124 137 154 157 177 249 293 327 330 311 302 54 119 120 29 3 336 300 306 295 280 284 293 323 329 327 328
351 350 347 344 343 341 340 340 341 341 335 324 312 304 295 287 278 223 183 173 227 199 232 278 259 266 268 250 247 247 248 260 248 236 254 270 277 287 250 207 216 274 295 312 323 314 260 161 109 86 80 85 93 81 61 50 45 40 49 70 110 157 159 162 181 257 290 326 357 333 352 55 76 112 4 359 347 329 327 308 275 283 329 6 339 326 323
353 350 347 345 343 342 341 339 340 341 339 332 322 308 294 275 254 227 212 240 272 210 237 301 277 275 278 252 235 238 241 253 253 245 255 262 268 285 284 250 253 278 300 308 316 305 265 235 30 32 138 145 132 89 70 53 35 30 30 18 17 154 154 235 231 219 317 291 287 283 269 65 66 24 353 351 334 317 315 304 296 291 89 4 337 326 323
353 350 349 347 344 343 342 341 342 341 340 339 331 317 304 278 243 230 224 240 256 178 175 311 298 296 296 244 209 219 259 252 268 273 270 270 278 311 311 277 267 301 323 317 331 27 315 318 339 334 327 284 283 321 123 119 54 34 21 16 43 70 27 323 278 279 31 291 295 304 278 181 61 2 343 338 316 299 285 285 289 145 41 347 338 330 327
354 351 350 349 347 348 348 348 349 348 346 346 339 327 314 278 237 218 217 229 241 181 224 293 303 293 281 181 190 271 279 255 307 297 276 294 58 27 334 291 244 4 359 4 38 81 46 348 210 288 320 280 253 311 333 182 104 59 40 65 71 46 35 58 300 303 51 307 306 307 277 92 34 348 339 343 331 310 276 266 252 47 354 342 337 329 326
355 355 356 356 356 358 358 359 2 1 2 1 355 347 337 292 227 203 216 230 254 275 259 286 299 260 234 160 299 293 272 48 343 341 13 14 34 27 6 98 156 190 23 15 11 84 61 55 156 264 297 171 264 298 311 341 350 48 68 64 61 41 19 19 342 327 47 310 289 286 269 46 12 348 346 349 340 320 279 284 313 345 340 337 334 326 323
2 3 4 6 7 9 11 14 18 20 21 23 20 14 11 5 255 213 216 223 219 161 173 350 323 252 242 339 345 322 104 31 359 347 345 17 31 26 27 138 177 276 12 351 330 73 46 221 182 313 292 132 15 297 307 359 346 20 51 14 55 61 12 359 18 354 338 235 259 303 277 85 6 351 352 352 343 324 306 317 324 332 329 328 328 324 320
8 10 12 16 18 20 25 28 31 36 37 36 35 32 27 28 20 215 206 214 221 191 196 288 355 120 120 61 49 59 55 16 4 353 294 22 7 350 335 148 129 19 18 27 147 93 352 236 148 326 257 164 35 323 12 19 4 7 359 13 45 27 342 6 8 324 356 171 266 301 262 66 10 354 354 1 358 334 320 323 322 325 324 322 323 322 320
15 18 20 25 28 31 36 37 38 41 40 37 38 37 35 36 40 113 170 185 156 116 127 156 93 89 87 77 65 56 44 25 18 23 60 340 334 330 309 141 30 4 8 58 83 141 235 316 125 204 241 348 27 79 62 81 59 11 358 59 32 347 314 6 354 329 327 274 286 310 284 15 10 360 353 7 4 331 321 323 321 322 324 321 321 322 326
22 25 27 33 37 40 41 42 41 40 38 36 37 38 39 43 55 91 119 170 190 120 105 104 95 83 85 82 67 56 52 41 32 37 36 341 330 344 346 284 333 346 247 221 4 210 184 109 49 176 215 329 5 15 5 124 92 34 18 78 52 8 1 345 337 47 26 309 330 350 324 343 3 359 339 340 343 331 326 325 321 321 323 323 324 327 330
25 29 32 35 38 40 41 39 36 34 34 34 34 35 39 42 53 74 79 70 115 124 113 104 91 83 88 83 64 57 57 50 42 35 20 359 343 352 305 273 292 318 249 195 4 346 156 135 100 74 348 100 76 39 351 97 75 12 10 40 72 52 16 326 257 42 340 276 267 299 312 333 348 341 331 337 338 333 328 323 319 319 324 328 329 326 325
27 30 31 32 33 34 32 28 26 26 29 30 31 32 32 33 41 64 73 75 91 100 101 96 85 79 81 78 69 64 57 48 40 30 22 23 36 21 347 303 291 299 271 250 324 317 135 131 106 70 73 78 75 73 65 55 44 9 17 21 42 38 14 346 270 326 317 277 269 300 318 332 332 327 336 344 338 332 328 324 322 324 327 329 327 323 322
29 29 30 32 32 28 24 23 22 23 23 25 28 29 28 28 34 39 27 48 100 101 94 82 73 74 77 76 71 65 55 45 35 27 24 27 34 23 354 337 330 323 322 359 345 328 133 124 114 100 86 22 39 80 86 61 42 6 17 12 1 13 9 357 326 331 326 298 312 330 328 325 323 329 344 340 333 330 328 326 326 328 328 327 325 323 323
32 32 32 32 30 27 22 20 20 19 18 20 26 29 30 28 26 24 16 355 178 143 105 80 72 74 79 79 71 59 48 37 28 23 23 17 8 359 341 332 339 337 328 352 1 47 111 87 92 119 83 37 41 50 83 83 62 42 43 36 352 334 347 348 332 326 311 284 307 324 323 316 320 341 343 334 329 328 327 326 328 329 329 327 326 326 328
32 30 29 26 23 21 16 13 14 15 15 15 18 30 33 28 23 25 26 23 161 146 111 97 90 84 81 78 68 52 39 33 29 24 20 15 7 2 357 356 4 5 4 33 53 87 97 83 84 89 20 40 59 59 93 104 88 75 68 39 345 317 326 336 328 319 303 293 317 328 326 313 321 338 335 331 329 327 326 327 329 332 335 334 331 332 334
25 22 20 18 14 11 8 7 7 7 10 11 7 9 23 24 26 28 26 31 63 154 107 109 113 99 85 73 61 49 39 37 35 26 20 20 15 12 21 25 28 41 63 75 76 83 84 74 67 50 64 89 89 85 102 110 98 86 59 20 0 346 341 340 333 325 318 321 332 338 337 319 323 330 331 332 332 330 329 329 332 336 338 336 334 335 334
17 14 11 9 6 3 2 3 3 3 5 6 2 336 329 8 23 27 27 34 24 316 126 120 116 104 88 67 50 46 44 41 37 30 27 27 23 24 35 43 51 63 72 88 90 74 59 66 76 70 97 107 100 92 107 108 89 75 33 9 4 0 345 337 332 319 312 320 333 345 344 322 319 325 329 333 334 332 331 333 336 337 336 334 334 336 336
10 9 7 4 2 358 356 357 0 2 2 1 3 358 301 349 23 24 22 33 40 84 119 119 107 88 82 61 44 43 46 40 35 33 32 30 29 36 46 54 69 78 80 88 90 77 71 89 88 62 69 102 111 97 92 81 62 52 20 2 357 352 342 334 323 313 314 326 339 345 336 323 319 322 327 331 333 333 333 334 336 335 335 337 337 336 334
356 356 356 355 355 354 351 352 353 357 2 4 7 11 350 338 13 13 14 30 54 91 119 122 108 93 89 67 47 42 44 40 35 33 34 34 36 48 62 68 79 86 86 91 92 84 84 92 78 56 61 79 101 105 61 29 72 39 8 357 351 347 341 335 327 324 333 338 335 330 325 320 318 320 326 330 334 335 333 332 333 334 335 335 333 332 332
344 343 341 343 347 348 348 347 345 352 6 12 14 22 24 349 347 354 5 29 72 110 110 106 110 115 104 70 47 39 37 40 34 30 34 38 43 63 78 77 85 90 88 88 87 77 70 74 69 63 65 72 87 100 62 54 68 358 351 351 349 344 340 337 334 332 331 330 328 326 324 321 322 327 331 333 335 334 333 332 332 332 330 329 331 334 335
340 338 335 334 338 342 345 345 343 353 11 16 22 31 21 348 340 347 18 58 85 124 117 101 105 111 122 92 47 31 29 35 30 27 36 46 54 79 87 80 86 94 90 87 83 69 63 74 75 68 64 73 90 102 68 58 26 345 342 344 342 340 340 340 336 329 326 329 332 331 328 328 335 336 333 334 337 337 337 337 334 330 330 333 339 343 342
343 340 337 335 337 340 342 344 344 360 19 20 28 37 31 18 16 42 91 85 77 87 93 92 108 84 62 129 52 23 20 23 21 23 36 45 52 87 97 79 79 82 75 75 83 84 92 93 83 72 63 65 79 99 73 35 2 342 339 341 340 339 340 338 334 331 331 333 335 329 320 322 329 330 327 333 338 338 337 338 336 334 336 342 345 346 345
346 343 340 339 341 341 344 349 353 17 23 30 55 61 56 54 54 66 95 90 71 74 69 62 84 85 16 116 100 17 12 11 14 20 28 36 45 75 105 87 74 68 61 66 81 90 95 90 83 81 64 51 58 84 52 3 351 344 342 343 340 338 337 337 336 334 332 331 331 326 318 319 326 328 327 332 336 335 335 338 339 340 342 346 347 346 344
346 346 345 346 350 352 358 10 26 22 18 49 99 88 73 67 61 62 71 66 58 74 65 50 61 70 1 8 75 3 1 3 12 16 15 25 42 62 90 89 69 56 58 71 72 68 70 66 65 74 51 32 49 75 8 348 346 346 346 343 343 345 344 340 336 334 334 333 332 332 333 333 334 336 337 337 337 336 336 338 341 344 345 346 346 344 341
347 350 352 356 3 12 22 31 28 10 16 82 128 114 90 76 65 62 62 57 57 69 73 61 67 58 358 296 302 341 349 355 2 4 6 17 30 45 71 82 74 59 59 68 62 49 57 70 72 63 39 44 68 49 6 351 347 347 346 343 345 349 346 339 335 336 338 339 337 339 342 343 342 345 345 341 338 337 337 339 343 346 347 344 342 339 337
350 353 359 8 17 28 37 30 21 30 66 109 132 131 107 77 66 58 50 49 54 58 64 77 82 27 351 287 307 334 343 347 352 0 12 18 18 43 61 68 106 113 66 52 51 59 74 82 82 71 74 98 92 42 16 3 353 347 344 343 347 349 344 342 342 342 341 342 345 347 347 346 346 347 345 342 340 339 340 342 346 347 344 340 337 335 335
353 357 8 22 27 30 31 28 39 83 108 114 122 124 94 54 59 44 32 39 48 47 49 64 71 23 2 329 323 347 353 344 343 4 25 22 13 45 60 59 104 143 72 18 43 99 87 80 72 70 105 119 93 39 20 7 355 349 345 342 345 345 344 346 349 347 344 345 347 347 347 347 344 341 339 339 340 341 343 346 348 347 343 338 335 334 336
358 1 15 32 38 39 41 46 70 102 113 113 115 108 48 33 42 22 15 26 39 36 37 46 47 19 8 351 335 359 4 351 339 359 26 24 16 18 46 67 95 105 65 22 88 109 88 63 57 85 123 130 48 22 11 359 353 351 346 339 340 343 344 348 351 351 345 342 341 341 344 344 338 333 333 336 339 341 344 348 348 346 343 340 338 339 341
4 8 22 42 48 47 45 49 69 102 108 94 84 71 46 40 38 18 4 19 42 34 24 18 5 2 6 358 332 347 2 3 355 342 357 5 3 2 31 82 77 78 77 21 343 41 92 86 89 89 71 22 13 8 1 354 351 350 344 336 339 344 346 349 352 349 342 341 340 337 335 333 330 329 332 336 338 340 345 348 347 345 343 341 342 344 345
10 16 31 49 50 40 37 42 52 80 99 70 55 52 43 34 28 23 23 35 37 1 359 357 350 350 354 349 328 320 348 359 352 320 317 350 355 4 41 95 58 80 101 331 338 11 69 83 61 359 359 22 7 358 353 349 349 348 341 334 339 346 350 352 352 349 345 345 342 334 331 330 331 334 337 339 340 343 347 347 344 344 345 345 345 347 348
11 16 27 42 38 28 29 38 41 44 60 56 45 33 19 16 21 27 34 49 344 334 348 354 347 335 333 335 328 311 326 348 351 335 309 344 356 12 34 288 53 73 71 304 329 20 69 79 16 329 337 4 357 352 349 347 346 346 338 334 341 348 353 353 350 349 347 341 333 330 332 333 336 340 342 342 343 347 349 346 343 344 347 347 347 349 350
6 4 1 9 21 22 27 31 29 32 51 54 39 19 6 12 20 12 11 15 348 338 340 341 341 336 332 337 341 328 325 343 351 352 347 348 351 13 45 39 36 35 348 320 1 48 84 110 280 307 353 356 349 346 345 346 346 342 333 335 342 349 353 351 348 347 341 331 328 331 334 336 338 343 347 347 348 351 351 348 346 347 349 349 350 352 353
360 358 355 350 12 13 11 15 23 33 54 52 43 70 15 354 350 249 305 332 337 338 336 335 336 335 331 338 345 343 340 353 359 3 5 360 359 26 69 53 360 334 331 359 23 66 131 216 254 289 355 353 346 342 344 347 347 335 329 335 343 349 353 353 350 344 334 331 333 336 338 339 343 348 352 354 355 355 352 350 350 351 351 351 352 354 355
360 359 6 33 19 14 14 14 24 36 58 206 147 149 171 282 283 223 279 310 315 321 327 329 327 324 323 336 351 355 352 359 9 6 349 353 15 41 67 18 347 13 55 40 12 75 170 320 327 349 354 348 342 340 344 348 343 328 330 337 344 350 354 352 346 338 334 334 336 338 340 343 348 351 354 358 0 359 354 353 354 353 352 352 353 354 356
7 12 36 82 36 19 29 65 21 23 83 195 196 171 202 277 284 275 289 304 309 314 321 325 328 334 343 355 15 15 0 360 14 4 355 3 52 33 330 307 33 44 50 12 349 257 241 318 342 348 345 341 337 338 345 347 336 328 333 339 344 350 353 349 339 334 333 334 336 340 344 347 350 352 355 359 2 1 358 357 357 356 354 353 353 354 356
11 21 45 80 69 20 33 69 78 43 121 163 224 282 300 306 301 294 299 306 311 318 325 329 334 353 5 16 30 19 12 22 39 12 7 34 159 287 351 44 85 60 36 343 297 271 278 328 344 340 336 334 334 340 346 345 331 330 335 339 344 349 352 343 334 333 333 334 338 343 347 349 351 354 356 359 2 3 1 360 359 359 357 355 354 355 356
29 27 42 82 123 21 45 99 128 115 96 262 281 302 318 322 319 317 321 324 325 328 336 345 342 338 11 28 43 10 15 27 36 15 12 42 118 345 9 27 359 293 218 177 230 305 329 338 335 330 329 330 335 342 346 339 329 331 336 339 344 349 348 336 332 333 335 336 341 346 350 351 352 355 356 357 1 4 3 1 1 1 359 356 356 357 357
52 56 71 95 113 110 114 130 138 114 54 4 325 325 336 343 348 349 346 346 344 341 355 24 32 18 4 26 50 46 20 21 22 2 11 24 60 124 39 352 312 306 214 202 261 319 329 325 323 324 328 332 336 341 342 333 329 332 335 339 345 348 340 330 331 335 338 341 344 348 350 351 352 354 355 357 1 3 3 2 1 2 1 359 358 358 357
58 62 71 79 91 119 134 136 136 315 336 13 25 23 19 17 16 10 3 3 4 6 22 28 28 32 49 44 50 49 16 7 29 59 35 28 138 141 18 274 235 223 253 291 311 321 321 319 322 327 331 333 336 338 335 329 329 332 335 339 343 342 333 330 333 339 342 345 346 349 351 353 354 355 357 358 360 1 2 2 1 2 3 3 1 359 358
60 64 69 76 101 141 149 134 108 115 128 77 56 46 36 26 18 14 13 15 20 27 37 15 16 40 58 49 44 52 13 18 44 66 66 220 181 149 175 242 233 267 313 318 317 317 317 321 326 330 331 332 333 332 329 327 329 332 335 338 340 337 331 333 338 342 345 347 349 350 352 354 355 355 357 358 359 359 1 2 3 5 6 5 3 1 360
66 80 88 93 110 130 138 129 111 108 100 80 62 53 44 33 23 17 16 21 28 37 52 52 42 51 65 78 113 126 97 51 36 50 209 207 186 177 207 268 293 306 310 311 312 314 317 322 328 330 329 329 329 327 325 325 329 335 337 336 336 336 336 337 341 344 346 348 351 352 354 355 355 355 357 359 1 1 1 2 4 6 6 4 2 1 1
Height
1572 1571 1570 1570 1569 1568 1567 1566 1565 1563 1562 1561 1560 1559 1558 1558 1558 1557 1556 1556 1556 1555 1557 1560 1561 1561 1562 1563 1564 1564 1564 1564 1564 1564 1564 1564 1564 1563 1563 1563 1563 1563 1563 1562 1563 1561 1558 1557 1557 1555 1557 1558 1559 1561 1562 1561 1561 1559 1557 1556 1559 1558 1555 1554 1548 1539 1544 1552 1555 1556 1557 1556 1553 1551 1554 1554 1553 1552 1551 1551 1553 1553 1549 1547 1549 1540 1518
1572 1571 1570 1570 1569 1568 1567 1565 1564 1563 1562 1561 1560 1559 1558 1558 1557 1557 1557 1556 1556 1556 1557 1559 1559 1561 1563 1563 1563 1563 1564 1564 1564 1564 1563 1563 1564 1563 1562 1563 1562 1563 1564 1563 1562 1561 1557 1555 1556 1558 1558 1559 1561 1562 1561 1562 1561 1560 1558 1557 1559 1556 1551 1552 1548 1539 1540 1543 1544 1547 1552 1552 1549 1549 1555 1558 1557 1560 1560 1559 1561 1554 1542 1539 1539 1526 1510
1572 1571 1570 1569 1568 1567 1566 1564 1563 1563 1562 1561 1560 1559 1558 1557 1557 1557 1557 1557 1556 1556 1558 1559 1560 1562 1563 1562 1563 1563 1563 1563 1564 1564 1563 1563 1564 1562 1562 1563 1563 1564 1565 1563 1563 1563 1559 1557 1558 1560 1560 1560 1563 1563 1561 1562 1562 1560 1561 1561 1560 1556 1553 1552 1549 1544 1544 1539 1536 1539 1543 1546 1547 1549 1556 1559 1559 1560 1556 1553 1556 1550 1541 1541 1536 1520 1507
1571 1571 1570 1569 1568 1566 1565 1564 1563 1563 1562 1561 1560 1559 1558 1557 1557 1558 1557 1557 1557 1558 1560 1560 1560 1562 1562 1560 1563 1564 1562 1563 1564 1563 1563 1563 1563 1563 1563 1563 1563 1564 1564 1562 1561 1563 1562 1561 1561 1561 1559 1559 1562 1563 1561 1562 1562 1561 1561 1561 1560 1559 1558 1554 1549 1547 1545 1538 1539 1547 1549 1547 1546 1546 1550 1555 1558 1560 1556 1552 1550 1545 1542 1539 1530 1522 1517
1571 1570 1569 1568 1567 1565 1564 1564 1563 1563 1562 1561 1560 1559 1558 1558 1559 1560 1559 1557 1558 1558 1560 1561 1560 1562 1561 1560 1563 1563 1561 1562 1563 1562 1563 1563 1563 1563 1563 1563 1562 1561 1562 1560 1559 1561 1564 1563 1562 1561 1560 1560 1563 1563 1562 1562 1561 1561 1561 1561 1561 1559 1555 1554 1554 1551 1547 1544 1546 1552 1554 1550 1547 1546 1547 1550 1556 1559 1557 1553 1545 1541 1543 1535 1523 1525 1525
1570 1569 1568 1567 1566 1565 1564 1564 1563 1563 1562 1561 1560 1560 1559 1559 1560 1562 1561 1559 1560 1560 1560 1561 1562 1562 1562 1563 1564 1563 1561 1561 1560 1561 1563 1563 1563 1562 1561 1561 1561 1560 1561 1559 1558 1560 1561 1560 1560 1560 1561 1562 1561 1560 1562 1562 1561 1562 1562 1561 1562 1558 1554 1558 1561 1555 1551 1551 1549 1549 1552 1552 1550 1550 1549 1548 1552 1557 1556 1551 1544 1544 1547 1536 1524 1526 1526
1569 1568 1567 1566 1565 1565 1564 1564 1563 1562 1561 1561 1560 1560 1560 1560 1560 1561 1561 1561 1561 1562 1562 1562 1562 1562 1563 1563 1563 1562 1560 1559 1559 1561 1562 1561 1563 1562 1558 1558 1560 1561 1561 1560 1559 1558 1557 1555 1557 1559 1560 1561 1559 1557 1558 1561 1562 1562 1562 1562 1563 1559 1555 1562 1567 1559 1551 1550 1551 1551 1553 1552 1551 1551 1549 1548 1550 1553 1554 1551 1546 1546 1545 1537 1530 1529 1525
1568 1567 1567 1566 1565 1564 1564 1563 1562 1562 1561 1561 1560 1560 1560 1560 1559 1560 1560 1561 1562 1562 1563 1562 1562 1562 1563 1561 1561 1563 1561 1559 1560 1561 1560 1558 1561 1562 1559 1557 1560 1561 1562 1561 1559 1557 1557 1556 1557 1559 1559 1559 1559 1556 1555 1558 1563 1563 1562 1564 1564 1559 1557 1563 1566 1556 1546 1549 1554 1553 1551 1552 1552 1549 1547 1548 1548 1550 1553 1552 1548 1547 1544 1537 1535 1531 1524
1568 1567 1566 1565 1565 1564 1563 1562 1562 1561 1561 1560 1560 1560 1559 1559 1559 1559 1559 1560 1562 1562 1562 1563 1562 1561 1561 1560 1560 1562 1561 1560 1560 1560 1559 1558 1559 1560 1559 1558 1560 1562 1562 1561 1559 1557 1559 1559 1558 1559 1559 1558 1558 1558 1557 1559 1561 1562 1564 1565 1563 1561 1560 1563 1563 1553 1543 1547 1551 1548 1549 1554 1554 1550 1549 1549 1547 1547 1550 1549 1545 1544 1541 1536 1534 1530 1522
1567 1566 1565 1565 1564 1563 1562 1562 1561 1561 1560 1560 1559 1559 1559 1559 1558 1559 1558 1559 1562 1563 1562 1563 1561 1559 1560 1561 1561 1561 1560 1561 1560 1558 1557 1559 1559 1559 1559 1559 1559 1560 1559 1559 1559 1558 1559 1559 1558 1559 1559 1558 1558 1558 1558 1559 1559 1560 1564 1565 1566 1565 1560 1559 1563 1554 1542 1543 1547 1545 1544 1545 1547 1551 1553 1550 1548 1546 1546 1544 1541 1539 1538 1536 1532 1527 1523
1566 1566 1565 1564 1563 1562 1562 1561 1560 1560 1559 1559 1559 1558 1559 1558 1558 1559 1558 1559 1561 1563 1563 1562 1561 1560 1561 1561 1561 1561 1560 1561 1560 1557 1556 1558 1559 1558 1559 1559 1559 1558 1558 1559 1559 1559 1559 1558 1558 1558 1558 1558 1559 1559 1559 1560 1560 1560 1562 1563 1568 1569 1562 1561 1566 1557 1544 1545 1547 1540 1534 1535 1541 1550 1553 1550 1549 1548 1545 1544 1540 1536 1534 1534 1531 1528 1526
1566 1565 1564 1563 1563 1562 1561 1560 1560 1559 1559 1558 1558 1558 1558 1558 1558 1558 1559 1558 1561 1563 1562 1561 1560 1561 1561 1561 1560 1560 1560 1559 1560 1559 1558 1559 1559 1558 1559 1560 1559 1558 1559 1559 1558 1559 1558 1558 1559 1559 1559 1559 1559 1560 1560 1560 1561 1562 1561 1561 1565 1566 1563 1566 1569 1562 1552 1551 1547 1535 1531 1538 1546 1550 1550 1549 1548 1546 1543 1541 1537 1534 1533 1533 1533 1531 1528
1565 1565 1564 1563 1562 1561 1561 1560 1559 1559 1558 1558 1558 1557 1557 1558 1558 1558 1559 1558 1560 1562 1561 1560 1561 1561 1560 1560 1560 1559 1559 1559 1559 1559 1559 1559 1559 1559 1559 1559 1559 1559 1559 1559 1559 1558 1558 1558 1559 1559 1560 1561 1560 1560 1562 1562 1562 1563 1562 1562 1563 1563 1564 1566 1568 1564 1557 1554 1552 1543 1538 1544 1549 1548 1548 1548 1546 1544 1543 1539 1534 1532 1534 1534 1533 1531 1528
1565 1565 1564 1563 1562 1561 1560 1560 1559 1559 1558 1557 1557 1557 1557 1557 1557 1558 1559 1559 1559 1561 1560 1559 1560 1560 1559 1559 1559 1558 1559 1559 1558 1559 1559 1558 1559 1559 1558 1559 1559 1559 1559 1559 1558 1558 1557 1555 1554 1553 1555 1557 1554 1555 1561 1565 1564 1563 1564 1563 1562 1563 1563 1562 1562 1563 1561 1560 1557 1549 1543 1546 1551 1552 1552 1552 1550 1549 1547 1542 1535 1532 1534 1535 1532 1529 1526
1565 1565 1564 1563 1562 1561 1560 1559 1559 1558 1558 1557 1557 1557 1557 1557 1557 1558 1558 1559 1559 1560 1560 1559 1559 1559 1559 1558 1559 1558 1558 1558 1558 1558 1558 1558 1559 1559 1558 1559 1559 1558 1559 1559 1558 1559 1557 1553 1550 1546 1544 1545 1546 1549 1558 1563 1564 1565 1565 1565 1564 1564 1563 1561 1560 1563 1565 1563 1559 1551 1545 1547 1553 1556 1555 1555 1552 1549 1549 1546 1537 1531 1533 1534 1530 1527 1524
1565 1564 1563 1563 1562 1561 1560 1559 1559 1558 1558 1557 1557 1557 1557 1557 1557 1557 1558 1559 1558 1558 1559 1559 1559 1559 1559 1558 1559 1558 1558 1558 1558 1557 1557 1558 1559 1559 1559 1559 1559 1559 1559 1558 1558 1559 1556 1553 1553 1550 1546 1548 1550 1551 1553 1556 1559 1564 1566 1565 1565 1565 1565 1564 1562 1564 1567 1565 1561 1556 1550 1550 1556 1557 1553 1552 1551 1547 1546 1544 1534 1529 1533 1535 1531 1528 1525
1565 1564 1563 1562 1561 1561 1560 1559 1559 1558 1558 1557 1557 1557 1557 1557 1557 1557 1557 1558 1558 1558 1559 1559 1559 1559 1559 1558 1559 1559 1558 1559 1558 1557 1557 1557 1559 1559 1559 1559 1559 1559 1559 1559 1559 1558 1556 1556 1558 1554 1551 1556 1557 1552 1552 1554 1555 1558 1563 1565 1566 1566 1568 1566 1562 1564 1570 1570 1563 1556 1551 1552 1556 1556 1552 1551 1548 1545 1545 1542 1531 1527 1533 1535 1532 1530 1526
1565 1564 1564 1563 1562 1561 1560 1560 1559 1558 1558 1558 1557 1557 1557 1556 1556 1557 1557 1558 1558 1558 1559 1559 1558 1559 1558 1558 1559 1559 1559 1559 1559 1558 1558 1558 1559 1559 1558 1559 1559 1558 1559 1559 1558 1557 1555 1557 1559 1555 1552 1559 1561 1555 1553 1556 1557 1560 1566 1569 1570 1571 1573 1574 1571 1570 1573 1574 1567 1556 1551 1554 1557 1554 1552 1550 1545 1543 1547 1546 1538 1534 1535 1534 1533 1531 1526
1565 1565 1564 1563 1562 1562 1561 1560 1560 1559 1558 1558 1557 1557 1557 1556 1556 1556 1557 1557 1557 1558 1559 1559 1559 1559 1559 1559 1559 1559 1559 1560 1559 1559 1558 1558 1559 1560 1559 1559 1559 1558 1559 1559 1558 1559 1556 1556 1564 1564 1557 1558 1561 1558 1557 1561 1564 1566 1568 1569 1572 1574 1575 1576 1576 1573 1573 1576 1571 1559 1552 1555 1558 1556 1554 1552 1550 1551 1552 1548 1544 1542 1539 1535 1533 1530 1525
1566 1565 1565 1564 1563 1563 1562 1561 1561 1560 1559 1559 1558 1557 1557 1556 1556 1556 1556 1557 1557 1557 1559 1559 1559 1559 1559 1559 1560 1560 1560 1560 1560 1560 1559 1558 1559 1559 1557 1557 1558 1559 1559 1556 1557 1561 1557 1555 1564 1567 1560 1557 1560 1559 1561 1567 1570 1571 1570 1571 1575 1578 1575 1573 1573 1574 1575 1575 1571 1563 1558 1557 1558 1557 1556 1556 1559 1561 1556 1549 1545 1544 1540 1536 1531 1527 1524
1567 1566 1565 1565 1564 1563 1563 1562 1561 1561 1560 1559 1558 1558 1557 1557 1557 1556 1557 1557 1557 1557 1559 1559 1560 1560 1560 1560 1561 1560 1561 1561 1560 1560 1560 1560 1560 1559 1557 1558 1558 1559 1559 1556 1556 1559 1559 1559 1563 1564 1561 1560 1561 1561 1564 1568 1571 1574 1574 1574 1579 1581 1580 1578 1577 1577 1578 1574 1567 1564 1563 1561 1561 1562 1562 1562 1563 1563 1558 1552 1546 1541 1538 1535 1530 1526 1524
1567 1567 1566 1565 1565 1564 1564 1563 1562 1561 1561 1560 1559 1559 1558 1558 1557 1557 1557 1557 1557 1558 1559 1560 1560 1560 1561 1561 1561 1561 1561 1561 1561 1561 1560 1560 1560 1560 1559 1560 1559 1558 1559 1558 1557 1557 1559 1561 1562 1561 1561 1561 1563 1568 1571 1569 1571 1577 1577 1576 1580 1584 1584 1583 1580 1579 1580 1576 1569 1566 1565 1564 1565 1566 1565 1563 1562 1561 1559 1554 1548 1542 1538 1535 1530 1525 1522
1568 1567 1567 1566 1566 1565 1565 1564 1563 1562 1562 1561 1560 1559 1559 1558 1558 1558 1558 1558 1558 1559 1560 1561 1561 1561 1562 1562 1562 1562 1562 1562 1561 1561 1561 1560 1560 1560 1559 1559 1559 1559 1559 1558 1558 1558 1558 1560 1561 1560 1562 1563 1564 1570 1573 1573 1577 1583 1581 1580 1583 1585 1584 1583 1581 1580 1579 1573 1567 1567 1567 1565 1566 1565 1563 1562 1560 1558 1555 1552 1547 1543 1539 1535 1531 1527 1522
1569 1568 1568 1567 1566 1566 1565 1565 1564 1563 1562 1561 1561 1560 1560 1559 1559 1559 1558 1558 1558 1559 1561 1562 1562 1562 1562 1563 1563 1563 1563 1562 1562 1562 1561 1561 1560 1559 1559 1559 1559 1559 1559 1559 1559 1559 1559 1561 1562 1561 1562 1566 1567 1568 1573 1579 1584 1586 1584 1585 1585 1583 1583 1583 1581 1582 1579 1570 1565 1568 1567 1565 1564 1563 1561 1560 1558 1556 1554 1550 1545 1541 1537 1534 1531 1526 1521
1569 1569 1568 1568 1567 1566 1566 1565 1564 1563 1563 1562 1561 1561 1560 1560 1560 1559 1559 1559 1558 1559 1561 1563 1564 1564 1564 1564 1564 1564 1563 1563 1563 1562 1561 1561 1560 1560 1560 1559 1559 1559 1559 1559 1559 1560 1559 1560 1562 1561 1563 1567 1570 1571 1574 1581 1585 1586 1587 1590 1589 1585 1584 1583 1582 1582 1579 1571 1567 1568 1567 1565 1564 1562 1560 1558 1555 1552 1550 1547 1544 1540 1536 1533 1529 1524 1520
1570 1569 1569 1568 1567 1567 1566 1565 1565 1564 1563 1562 1562 1562 1561 1560 1560 1559 1559 1559 1558 1558 1560 1563 1565 1565 1565 1565 1564 1564 1564 1563 1563 1562 1561 1561 1561 1560 1559 1559 1559 1559 1559 1559 1559 1560 1560 1561 1562 1564 1565 1568 1570 1574 1577 1581 1585 1587 1589 1593 1593 1589 1587 1585 1583 1580 1576 1571 1568 1566 1562 1560 1560 1561 1560 1557 1553 1549 1546 1544 1541 1538 1534 1530 1526 1522 1518
1571 1570 1569 1569 1568 1567 1567 1566 1565 1564 1564 1563 1562 1562 1561 1561 1560 1560 1559 1559 1558 1558 1559 1562 1565 1565 1565 1566 1565 1565 1565 1564 1563 1563 1562 1561 1561 1560 1559 1559 1559 1559 1559 1559 1560 1560 1561 1562 1564 1567 1570 1570 1572 1577 1581 1583 1585 1587 1590 1592 1592 1590 1588 1586 1584 1581 1576 1573 1571 1569 1564 1560 1558 1558 1556 1553 1550 1546 1542 1539 1537 1534 1530 1527 1522 1518 1514
1571 1571 1570 1569 1569 1568 1567 1566 1565 1565 1564 1563 1562 1562 1562 1561 1560 1560 1559 1559 1558 1557 1558 1561 1565 1566 1565 1566 1566 1566 1565 1565 1564 1563 1562 1561 1561 1560 1560 1560 1560 1559 1559 1559 1560 1561 1562 1565 1568 1571 1572 1572 1574 1579 1583 1584 1585 1588 1591 1593 1592 1592 1591 1589 1586 1584 1580 1576 1575 1574 1571 1566 1560 1556 1554 1552 1548 1544 1540 1537 1534 1531 1528 1525 1521 1517 1511
1572 1571 1570 1569 1569 1568 1567 1566 1566 1565 1564 1563 1562 1562 1561 1561 1561 1560 1559 1559 1558 1558 1558 1561 1564 1566 1566 1567 1567 1566 1566 1565 1564 1563 1563 1562 1561 1561 1560 1560 1560 1560 1560 1560 1561 1563 1565 1568 1570 1572 1572 1572 1575 1579 1585 1588 1590 1592 1594 1596 1595 1594 1593 1591 1588 1585 1581 1578 1576 1575 1572 1568 1561 1556 1554 1551 1548 1544 1540 1537 1534 1530 1527 1524 1521 1517 1513
1572 1571 1570 1569 1569 1568 1567 1566 1565 1565 1564 1563 1562 1562 1561 1561 1561 1560 1560 1559 1559 1559 1559 1560 1563 1566 1568 1568 1568 1567 1566 1566 1565 1564 1563 1563 1562 1561 1561 1561 1561 1561 1561 1562 1563 1565 1568 1570 1571 1573 1573 1573 1575 1581 1589 1593 1595 1594 1595 1595 1594 1593 1591 1589 1587 1584 1580 1577 1575 1573 1571 1568 1562 1557 1554 1551 1548 1544 1540 1536 1533 1530 1527 1523 1520 1516 1512
1572 1571 1570 1569 1568 1568 1567 1566 1565 1565 1564 1563 1563 1562 1562 1561 1561 1560 1560 1559 1559 1559 1559 1560 1563 1566 1568 1568 1568 1568 1567 1566 1566 1565 1564 1563 1563 1562 1562 1562 1562 1563 1563 1564 1564 1566 1569 1571 1572 1574 1575 1574 1576 1584 1592 1596 1596 1595 1594 1594 1593 1591 1589 1587 1585 1583 1580 1576 1571 1567 1565 1564 1561 1557 1554 1551 1548 1545 1540 1536 1533 1530 1526 1522 1519 1515 1509
1571 1570 1569 1568 1568 1567 1566 1566 1565 1565 1564 1564 1563 1563 1562 1562 1561 1560 1560 1559 1559 1559 1559 1560 1563 1566 1567 1568 1568 1568 1567 1567 1566 1565 1565 1564 1563 1564 1564 1563 1564 1564 1564 1565 1566 1569 1572 1574 1574 1576 1577 1576 1579 1587 1593 1595 1596 1595 1593 1592 1591 1589 1587 1585 1583 1581 1578 1575 1569 1562 1556 1556 1556 1555 1552 1549 1546 1543 1540 1535 1531 1527 1523 1518 1514 1510 1506
1571 1570 1569 1568 1567 1567 1566 1566 1565 1565 1565 1564 1564 1563 1563 1561 1560 1560 1560 1560 1560 1560 1560 1560 1563 1566 1568 1568 1569 1568 1568 1567 1567 1565 1565 1565 1564 1565 1565 1565 1565 1566 1566 1567 1568 1571 1574 1575 1575 1577 1579 1579 1581 1587 1592 1595 1596 1596 1593 1591 1590 1588 1586 1584 1582 1579 1576 1573 1571 1565 1558 1554 1553 1552 1549 1546 1543 1540 1537 1532 1526 1521 1516 1511 1506 1503 1500
1570 1569 1568 1567 1567 1566 1566 1565 1565 1565 1565 1565 1564 1564 1563 1562 1561 1561 1561 1561 1561 1560 1561 1562 1565 1567 1568 1568 1569 1569 1568 1568 1567 1566 1566 1566 1565 1565 1565 1566 1566 1567 1568 1569 1571 1573 1575 1576 1576 1579 1582 1583 1585 1589 1594 1596 1596 1595 1593 1591 1588 1586 1583 1581 1580 1578 1574 1570 1568 1566 1562 1557 1554 1551 1547 1544 1540 1537 1533 1529 1523 1516 1511 1506 1502 1498 1495
1570 1569 1568 1567 1566 1566 1566 1565 1565 1565 1565 1565 1565 1565 1564 1564 1563 1562 1562 1562 1561 1561 1563 1565 1568 1570 1570 1569 1569 1569 1569 1568 1568 1567 1566 1566 1566 1566 1566 1566 1567 1568 1570 1572 1573 1575 1576 1577 1578 1582 1586 1588 1591 1595 1597 1597 1595 1594 1592 1589 1586 1583 1580 1577 1575 1573 1571 1567 1564 1562 1559 1556 1553 1550 1547 1543 1539 1534 1528 1524 1520 1515 1509 1504 1501 1497 1493
1570 1568 1568 1567 1566 1566 1565 1565 1565 1565 1565 1565 1565 1566 1565 1565 1565 1564 1564 1563 1563 1563 1565 1568 1572 1575 1575 1573 1571 1570 1569 1568 1568 1567 1567 1566 1566 1566 1566 1566 1568 1571 1572 1573 1575 1577 1578 1578 1580 1585 1590 1592 1596 1599 1599 1597 1595 1593 1590 1588 1585 1583 1580 1576 1572 1568 1565 1564 1562 1560 1557 1554 1552 1549 1546 1543 1538 1533 1527 1522 1517 1513 1508 1503 1500 1496 1493
1569 1568 1567 1567 1566 1566 1566 1566 1565 1565 1565 1565 1566 1566 1566 1566 1566 1566 1565 1565 1565 1566 1567 1570 1575 1578 1578 1576 1574 1572 1570 1569 1569 1568 1567 1566 1566 1566 1566 1567 1569 1572 1573 1575 1577 1579 1580 1580 1583 1589 1593 1595 1598 1599 1598 1596 1595 1593 1589 1587 1584 1582 1579 1575 1570 1564 1560 1558 1556 1554 1552 1550 1549 1547 1545 1541 1537 1532 1528 1523 1517 1513 1508 1504 1500 1496 1492
1569 1568 1568 1567 1567 1566 1566 1566 1566 1566 1566 1566 1566 1566 1567 1567 1566 1567 1567 1566 1567 1569 1570 1573 1576 1579 1578 1577 1575 1573 1571 1570 1570 1568 1567 1567 1567 1566 1566 1568 1570 1573 1576 1579 1580 1580 1581 1584 1588 1592 1595 1596 1597 1597 1597 1596 1594 1591 1589 1586 1583 1580 1577 1573 1568 1564 1559 1555 1552 1549 1547 1543 1540 1539 1538 1536 1533 1530 1526 1522 1518 1514 1509 1505 1501 1496 1491
1569 1569 1568 1568 1567 1567 1567 1567 1567 1566 1566 1567 1567 1567 1568 1567 1567 1568 1569 1570 1570 1572 1573 1575 1577 1579 1578 1577 1576 1574 1573 1572 1571 1569 1569 1569 1567 1567 1568 1570 1571 1573 1576 1579 1580 1580 1581 1586 1591 1594 1595 1596 1596 1596 1595 1594 1592 1589 1587 1584 1581 1579 1576 1572 1569 1566 1563 1560 1558 1555 1551 1547 1542 1537 1534 1531 1529 1526 1523 1520 1516 1512 1508 1505 1500 1494 1489
1569 1569 1569 1568 1568 1568 1568 1567 1567 1567 1567 1567 1567 1567 1568 1569 1570 1572 1573 1573 1575 1577 1577 1578 1579 1579 1578 1578 1577 1575 1573 1572 1572 1571 1571 1570 1569 1569 1569 1570 1570 1573 1576 1579 1579 1579 1581 1585 1591 1594 1594 1594 1595 1595 1593 1591 1589 1587 1585 1582 1580 1577 1574 1571 1568 1567 1565 1563 1560 1557 1554 1551 1547 1542 1537 1532 1527 1523 1520 1517 1514 1511 1507 1503 1498 1493 1488
1570 1569 1569 1569 1569 1569 1568 1568 1568 1568 1568 1567 1568 1570 1572 1573 1575 1576 1576 1577 1579 1581 1581 1580 1580 1579 1578 1578 1578 1576 1574 1574 1573 1573 1572 1571 1571 1570 1569 1570 1571 1573 1576 1579 1580 1580 1580 1585 1591 1594 1594 1594 1594 1593 1591 1589 1587 1585 1583 1581 1578 1575 1572 1569 1567 1566 1564 1561 1559 1556 1553 1550 1547 1542 1538 1533 1528 1524 1520 1516 1513 1510 1505 1501 1496 1492 1487
1570 1570 1569 1569 1569 1569 1569 1568 1568 1568 1568 1568 1570 1574 1579 1579 1579 1580 1580 1581 1583 1584 1583 1581 1581 1580 1579 1578 1577 1576 1575 1574 1573 1573 1573 1572 1571 1571 1571 1571 1571 1571 1575 1580 1581 1579 1581 1587 1592 1593 1593 1593 1592 1590 1588 1587 1585 1583 1581 1579 1576 1573 1570 1568 1566 1564 1562 1560 1557 1554 1551 1548 1544 1541 1537 1532 1528 1524 1521 1517 1513 1509 1504 1500 1496 1491 1486
1571 1570 1570 1569 1569 1569 1569 1569 1569 1570 1573 1574 1575 1578 1582 1583 1584 1585 1585 1584 1585 1585 1584 1583 1582 1581 1579 1578 1578 1577 1576 1575 1575 1574 1573 1572 1572 1572 1572 1572 1572 1573 1578 1581 1580 1579 1583 1591 1594 1593 1592 1591 1590 1589 1587 1585 1583 1581 1579 1576 1574 1571 1569 1566 1564 1563 1561 1558 1556 1552 1549 1545 1542 1539 1536 1531 1527 1523 1520 1516 1513 1508 1503 1499 1495 1490 1485
1571 1570 1569 1569 1570 1569 1569 1571 1572 1573 1578 1582 1584 1584 1584 1585 1586 1588 1587 1585 1585 1585 1584 1583 1583 1582 1580 1579 1578 1577 1576 1576 1575 1574 1574 1574 1574 1574 1573 1575 1577 1579 1580 1581 1583 1585 1590 1594 1593 1591 1591 1590 1588 1587 1585 1583 1581 1579 1577 1574 1572 1569 1566 1564 1563 1561 1559 1556 1553 1550 1546 1542 1539 1536 1533 1530 1525 1521 1517 1514 1511 1506 1502 1498 1494 1490 1485
1571 1570 1569 1570 1571 1571 1570 1574 1577 1579 1582 1587 1590 1589 1589 1588 1588 1588 1588 1586 1586 1586 1585 1583 1583 1582 1581 1579 1578 1578 1578 1577 1576 1576 1577 1577 1576 1576 1578 1580 1582 1583 1584 1585 1586 1588 1590 1592 1591 1590 1590 1589 1587 1585 1583 1581 1579 1577 1574 1572 1569 1567 1564 1563 1561 1559 1557 1554 1550 1547 1543 1539 1536 1533 1530 1527 1523 1520 1516 1512 1508 1504 1500 1496 1492 1488 1484
1571 1571 1570 1571 1574 1576 1577 1580 1584 1586 1588 1590 1591 1590 1590 1590 1589 1589 1588 1587 1586 1585 1584 1583 1583 1582 1580 1580 1579 1579 1579 1578 1577 1579 1580 1578 1576 1579 1582 1582 1583 1585 1586 1586 1586 1587 1589 1591 1591 1590 1589 1587 1585 1583 1581 1579 1577 1575 1572 1569 1567 1565 1563 1562 1560 1558 1555 1552 1548 1545 1541 1538 1534 1531 1528 1525 1522 1518 1515 1511 1507 1503 1498 1494 1490 1485 1482
1572 1572 1571 1572 1577 1582 1584 1586 1588 1589 1589 1590 1590 1590 1590 1589 1588 1588 1587 1586 1586 1585 1583 1583 1582 1581 1581 1581 1581 1580 1580 1580 1579 1581 1582 1580 1580 1583 1584 1582 1585 1590 1590 1586 1586 1590 1593 1592 1590 1589 1588 1586 1584 1581 1579 1578 1575 1573 1570 1568 1565 1563 1562 1561 1559 1556 1553 1550 1546 1543 1540 1536 1533 1529 1526 1523 1520 1517 1513 1510 1506 1502 1498 1494 1489 1485 1480
1573 1573 1573 1576 1583 1586 1587 1588 1590 1590 1590 1590 1590 1590 1589 1588 1588 1587 1586 1586 1585 1584 1583 1583 1582 1582 1582 1582 1582 1581 1582 1580 1580 1582 1584 1584 1583 1584 1583 1582 1587 1595 1596 1592 1591 1592 1592 1591 1589 1589 1587 1585 1582 1579 1578 1576 1573 1571 1568 1566 1564 1562 1561 1559 1557 1554 1551 1548 1544 1541 1538 1535 1531 1528 1525 1522 1519 1516 1512 1509 1505 1501 1497 1493 1489 1484 1480
1574 1575 1577 1581 1586 1589 1589 1589 1590 1590 1590 1590 1589 1589 1588 1588 1587 1586 1586 1585 1584 1583 1583 1583 1582 1581 1582 1582 1583 1583 1584 1584 1583 1585 1587 1587 1588 1592 1592 1588 1588 1591 1593 1594 1594 1593 1591 1590 1589 1588 1585 1583 1580 1578 1576 1574 1572 1569 1567 1564 1563 1561 1560 1557 1555 1552 1549 1546 1543 1540 1537 1533 1530 1527 1524 1520 1517 1514 1511 1507 1504 1500 1497 1492 1487 1483 1479
1576 1578 1581 1584 1586 1588 1589 1590 1590 1590 1590 1590 1589 1588 1588 1587 1586 1586 1585 1584 1583 1583 1583 1583 1582 1582 1583 1583 1582 1584 1587 1588 1589 1589 1588 1591 1597 1600 1596 1591 1589 1591 1592 1593 1594 1592 1591 1589 1587 1584 1582 1581 1578 1576 1574 1572 1570 1568 1566 1564 1562 1561 1558 1556 1553 1550 1548 1545 1542 1538 1535 1532 1529 1526 1522 1519 1516 1513 1510 1507 1503 1500 1496 1492 1487 1483 1478
1579 1582 1585 1587 1587 1587 1589 1589 1589 1589 1589 1589 1588 1588 1588 1587 1586 1585 1585 1584 1583 1583 1583 1583 1583 1583 1582 1582 1583 1585 1587 1591 1594 1594 1594 1596 1600 1600 1593 1589 1591 1593 1593 1593 1592 1591 1590 1588 1585 1582 1580 1578 1576 1574 1573 1571 1568 1566 1565 1562 1561 1559 1557 1554 1551 1549 1546 1543 1540 1537 1534 1531 1528 1525 1522 1519 1515 1512 1509 1506 1502 1498 1494 1490 1486 1482 1478
1583 1585 1588 1589 1588 1588 1589 1589 1589 1589 1589 1589 1588 1588 1588 1587 1586 1586 1585 1584 1584 1583 1583 1583 1584 1583 1583 1584 1587 1589 1590 1591 1593 1594 1595 1595 1597 1596 1593 1592 1593 1593 1592 1592 1591 1590 1588 1586 1584 1581 1578 1577 1575 1573 1571 1568 1567 1565 1563 1561 1559 1557 1555 1552 1549 1546 1544 1541 1539 1535 1532 1530 1527 1524 1521 1517 1513 1509 1506 1502 1499 1496 1492 1489 1486 1483 1479